Piney Island, NC

1:16 PM EDT on July 28, 2017 (GMT -0400)
Piney Island

Weather History for KNBT - February, 2013

Change the Weather History Date:

Saturday, February 9, 2013

  Actual Average (KMRH) Record (KMRH)
Temperature  
Mean Temperature 46 °F -  
Max Temperature 52 °F 53 °F 67 °F (1956)
Min Temperature 41 °F 32 °F 20 °F (1958)
Degree Days  
Heating Degree Days 18    
Moisture  
Dew Point 28 °F    
Average Humidity 52    
Maximum Humidity 63    
Minimum Humidity 34    
Precipitation  
Precipitation 0.00 in - - ()
Sea Level Pressure  
Sea Level Pressure 30.20 in    
Wind  
Wind Speed 16 mph (NW)    
Max Wind Speed 20 mph    
Max Gust Speed 31 mph    
Visibility 10 miles    
Events      
Averages and records for this station are not official NWS values.
T = Trace of Precipitation, MM = Missing Value Source: NWS Daily Summary

Daily Weather History Graph

Daily Weather History Graph

Search for Another Location

Airport or City:

Trip Planner

Search our weather history database for the weather conditions in past years. The results will help you decide how hot, cold, wet, or windy it might be!

Date:

Astronomy

Feb. 09, 2013 Rise Set
Actual Time 6:57 AM EST 5:42 PM EST
Civil Twilight 6:31 AM EST 6:09 PM EST
Nautical Twilight 6:01 AM EST 6:39 PM EST
Astronomical Twilight 5:32 AM EST 7:08 PM EST
Moon 6:08 AM EST (2/9) 5:21 PM EST (2/9)
Length of Visible Light 11h 37m
Length of Day
10h 45m
Waning Crescent, 0% of the Moon is Illuminated
Feb 9
Waning Crescent
Feb 10
New
Feb 17
First Quarter
Feb 25
Full
Mar 4
Last Quarter

Hourly Weather History & Observations

Time (EST) Temp. Windchill Dew Point Humidity Pressure Visibility Wind Dir Wind Speed Gust Speed Precip Events Conditions
12:56 AM 46.0 °F 38.8 °F 32.0 °F 58% 29.99 in 10.0 mi WNW 18.4 mph 29.9 mph N/A   Clear
1:56 AM 46.0 °F 39.0 °F 32.0 °F 58% 30.01 in 10.0 mi WNW 17.3 mph 29.9 mph N/A   Clear
2:56 AM 44.1 °F 35.9 °F 30.9 °F 60% 30.01 in 10.0 mi WNW 19.6 mph 26.5 mph N/A   Clear
3:56 AM 43.0 °F 35.1 °F 30.9 °F 62% 30.03 in 10.0 mi WNW 17.3 mph 23.0 mph N/A   Clear
4:56 AM 42.1 °F 33.6 °F 28.0 °F 58% 30.06 in - NW 18.4 mph 25.3 mph N/A   Clear
5:56 AM 42.1 °F 33.9 °F 27.0 °F 55% 30.10 in - WNW 17.3 mph 27.6 mph N/A   Clear
6:56 AM 41.0 °F 32.2 °F 27.0 °F 57% 30.14 in - NW 18.4 mph 28.8 mph N/A   Clear
7:56 AM 42.1 °F 33.9 °F 27.0 °F 55% 30.19 in - NW 17.3 mph 27.6 mph N/A   Clear
8:56 AM 43.0 °F 34.5 °F 28.0 °F 56% 30.20 in - NW 19.6 mph 27.6 mph N/A   Clear
9:56 AM 45.0 °F 37.1 °F 27.0 °F 49% 30.22 in - NW 19.6 mph 26.5 mph N/A   Clear
10:56 AM 46.9 °F - 27.0 °F 46% 30.23 in - NNW 18.4 mph 31.1 mph N/A   Clear
11:56 AM 48.0 °F - 26.1 °F 42% 30.23 in - NNW 16.1 mph 26.5 mph N/A   Clear
12:56 PM 50.0 °F - 25.0 °F 38% 30.22 in - NW 18.4 mph 23.0 mph N/A   Clear
1:56 PM 50.0 °F - 24.1 °F 36% 30.22 in - NW 18.4 mph 23.0 mph N/A   Clear
2:56 PM 52.0 °F - 26.1 °F 37% 30.22 in - NNW 13.8 mph - N/A   Clear
3:56 PM 52.0 °F - 24.1 °F 34% 30.23 in - NNW 15.0 mph - N/A   Clear
4:56 PM 51.1 °F - 25.0 °F 36% 30.25 in - NNW 11.5 mph - N/A   Clear
5:56 PM 46.9 °F - 30.0 °F 52% 30.28 in - NNW 8.1 mph - N/A   Clear
6:56 PM 45.0 °F 41.8 °F 32.0 °F 60% 30.31 in - NNW 5.8 mph - N/A   Clear
7:56 PM 45.0 °F 41.2 °F 30.0 °F 56% 30.32 in - North 6.9 mph - N/A   Clear
8:56 PM 44.1 °F 41.5 °F 32.0 °F 63% 30.35 in - North 4.6 mph - N/A   Clear
9:56 PM 43.0 °F 40.3 °F 28.9 °F 58% 30.36 in - North 4.6 mph - N/A   Clear
10:56 PM 43.0 °F 39.5 °F 28.9 °F 58% 30.36 in - North 5.8 mph - N/A   Clear
11:56 PM 42.1 °F 37.1 °F 28.0 °F 58% 30.37 in - North 8.1 mph - N/A   Clear